Regional Weather Roundup
Issued by NWS

Home | Current Version | Previous Version | Graphics & Text | Print | Product List | Glossary On
Versions: 1 2 3 4 5 6 7 8 9 10 11 12 13 14 15 16 17 18 19 20 21 22 23 24 25 26 27 28 29 30 31 32 33 34 35 36 37 38 39 40 41 42 43 44 45 46 47 48 49 50
000
ASUS43 KBIS 231202
RWRND

NORTH DAKOTA REGIONAL WEATHER ROUNDUP
NATIONAL WEATHER SERVICE BISMARCK ND
600 AM CST TUE JAN 23 2018

NOTE: "FAIR" INDICATES FEW OR NO CLOUDS BELOW 12,000 FEET WITH NO
SIGNIFICANT WEATHER AND/OR OBSTRUCTIONS TO VISIBILITY.


NDZ001>003-009>011-017-231300-
NORTHWEST NORTH DAKOTA

CITY           SKY/WX    TMP DP  RH WIND       PRES   REMARKS
WILLISTON      CLEAR     19  15  84 S6        30.04R WCI  11
6HR MIN TEMP:  17; 6HR MAX TEMP:  23;

MINOT          CLOUDY    16  13  88 SW8       29.97R WCI   5
MINOT AFB      CLOUDY    15  13  89 NW9       29.96R WCI   4
$$

NDZ018>021-031>035-040>046-231300-
SOUTHWEST NORTH DAKOTA

CITY           SKY/WX    TMP DP  RH WIND       PRES   REMARKS
BISMARCK       FOG       15  12  88 CALM      30.03R VSB 1/4
6HR MIN TEMP:  15; 6HR MAX TEMP:  22;

DICKINSON      MOCLDY    22  17  81 W13       29.98R WCI  10
GARRISON         N/A      6   4  91 CALM      29.99R
6HR MIN TEMP:   5; 6HR MAX TEMP:  18;

HETTINGER ARPT MOCLDY    23  18  81 W7        30.03R WCI  15
$$

NDZ004>008-012>016-024-026-027-054-231300-
NORTHEAST NORTH DAKOTA

CITY           SKY/WX    TMP DP  RH WIND       PRES   REMARKS
GRAND FORKS    CLOUDY    21  17  84 CALM      30.07R
DEVILS LAKE    CLOUDY    19  17  92 SW12      30.00S FOG     WCI   7
$$

NDZ022-023-025-028>030-036>039-047>053-231300-
SOUTHEAST NORTH DAKOTA

CITY           SKY/WX    TMP DP  RH WIND       PRES   REMARKS
FARGO          CLOUDY    21  16  81 NE7       30.06F WCI  12
6HR MIN TEMP:  20; 6HR MAX TEMP:  24;

JAMESTOWN      CLOUDY    18  17  96 SW8       30.02R FOG     WCI   8
$$





USA.gov is the U.S. government's official web portal to all federal, state and local government web resources and services.